Погода в Наджу

Южная Корея     35°01′46″N   126°43′13″E
темп.,
°C
ветер,
м/с
пор.,
м/с
влажн.,
%
обл.,
%
осадки,
мм/ч
давл.,
гПа
погр.,
м
12 апреля, пн
пн1200:00+12вюв41160100 0.0 1027393
03:00+12вюв41156100 0.0 1025386
06:00+12юв3960100 0.1 1024339
09:00+12в61372100 0.4 1022576
12:00+13вюв71685100 0.9 1020898
15:00+13вюв91889100 5.3 10151028
18:00+13юв61592100 3.6 1013754
21:00+15ююв71492100 8.7 1012898
13 апреля, вт
вт1300:00+12юз4998100 0.6 1013576
03:00+11зюз4896100 0.6 1013635
06:00+11з4892100 0.1 1014576
09:00+11сз5992100 0.1 1015603
12:00+15ссз7106447 0.0 10161182
15:00+14ссз796098 0.0 10151060
18:00+10ссз61063100 0.0 1017732
21:00+7ссз51063100 0.0 1019731
14 апреля, ср
ср1400:00+6ссз51056100 0.0 1020786
03:00+6ссз411575 0.0 1019576
06:00+4ссз38610 0.0 1019222
09:00+10с611444 0.0 1020986
12:00+14с610300 0.0 10201648
15:00+15ссз710250 0.0 10201914
18:00+12ссз47390 0.0 1020519
21:00+6ссз115874 0.0 102210
15 апреля, чт
чт1500:00+5юв116372 0.0 102210
03:00+4ссв11640 0.0 102110
06:00+3всв11635 0.0 102110
09:00+10ссв2347100 0.0 1021305
12:00+16с2233100 0.0 10201082
15:00+17юз23291 0.0 10171617
18:00+14юз46480 0.0 1018407
21:00+8ююв226151 0.0 101915
16 апреля, пт
пт1600:00+7юв117197 0.0 101910
03:00+7юв226697 0.0 101813
06:00+9юв1165100 0.0 101816
09:00+13юз3669100 0.0 1018506
12:00+16зюз456222 0.0 1018934
15:00+18зюз57590 0.0 10161115
18:00+15зюз46730 0.0 1017663
21:00+10ююз229373 0.0 101832